Boonville, MO

1:49 PM CST on February 23, 2017 (GMT -0600)
Viertel Memorial

Weather History for KVER - October, 2012

Change the Weather History Date:

Monday, October 1, 2012

  Actual Average Record
Temperature  
Mean Temperature 62 °F -  
Max Temperature 77 °F 75 °F 98 °F (2013)
Min Temperature 51 °F 50 °F 32 °F (1984)
Degree Days  
Heating Degree Days 2    
Growing Degree Days 12 (Base 50)    
Moisture  
Dew Point 48 °F    
Average Humidity 66    
Maximum Humidity 98    
Minimum Humidity 34    
Precipitation  
Precipitation 0.01 in - - ()
Sea Level Pressure  
Sea Level Pressure 29.83 in    
Wind  
Wind Speed 3 mph (NNE)    
Max Wind Speed 14 mph    
Max Gust Speed 18 mph    
Visibility 10 miles    
Events      
Averages and records for this station are not official NWS values.
T = Trace of Precipitation, MM = Missing Value Source: NWS Daily Summary

Daily Weather History Graph

Daily Weather History Graph

Search for Another Location

Airport or City:

Trip Planner

Search our weather history database for the weather conditions in past years. The results will help you decide how hot, cold, wet, or windy it might be!

Date:

Astronomy

Oct. 01, 2012 Rise Set
Actual Time 7:07 AM CDT 6:52 PM CDT
Civil Twilight 6:40 AM CDT 7:19 PM CDT
Nautical Twilight 6:09 AM CDT 7:50 PM CDT
Astronomical Twilight 5:38 AM CDT 8:21 PM CDT
Moon 7:31 PM CDT (10/1) 8:35 AM CDT (10/1)
Length of Visible Light 12h 38m
Length of Day
11h 45m
Full, 98% of the Moon is Illuminated
Oct 1
Full
Oct 8
Last Quarter
Oct 15
New
Oct 21
First Quarter
Oct 29
Full

Hourly Weather History & Observations

Time (CDT) Temp. Dew Point Humidity Pressure Visibility Wind Dir Wind Speed Gust Speed Precip Events Conditions
12:15 AM 57.6 °F 51.1 °F 79% 29.86 in 10.0 mi Calm Calm - N/A   Clear
12:35 AM 57.0 °F 51.1 °F 81% 29.86 in 10.0 mi Calm Calm - N/A   Clear
12:55 AM 56.3 °F 51.6 °F 84% 29.86 in 10.0 mi Calm Calm - N/A   Clear
1:15 AM 57.0 °F 52.2 °F 84% 29.85 in 7.0 mi Calm Calm - N/A   Clear
1:35 AM 57.0 °F 52.5 °F 85% 29.86 in 10.0 mi Calm Calm - N/A   Clear
1:55 AM 56.1 °F 53.6 °F 91% 29.85 in 10.0 mi Calm Calm - N/A   Clear
2:15 AM 55.8 °F 54.1 °F 94% 29.85 in 10.0 mi Calm Calm - N/A   Clear
2:35 AM 56.5 °F 54.9 °F 94% 29.85 in 10.0 mi Calm Calm - N/A   Clear
2:55 AM 56.5 °F 55.0 °F 95% 29.84 in 10.0 mi Calm Calm - N/A   Clear
3:15 AM 55.6 °F 54.5 °F 96% 29.83 in 10.0 mi NE 4.6 mph - N/A   Clear
3:35 AM 55.0 °F 54.0 °F 96% 29.83 in 10.0 mi Calm Calm - N/A   Clear
3:55 AM 54.7 °F 53.8 °F 97% 29.82 in 10.0 mi Calm Calm - N/A   Clear
4:15 AM 54.5 °F 53.6 °F 97% 29.83 in 10.0 mi Calm Calm - N/A   Clear
4:35 AM 54.7 °F 53.4 °F 96% 29.83 in 10.0 mi Calm Calm - N/A   Clear
5:15 AM 54.0 °F 53.4 °F 98% 29.83 in 10.0 mi North 3.5 mph - N/A   Clear
5:35 AM 54.3 °F 53.4 °F 97% 29.83 in 10.0 mi NE 3.5 mph - N/A   Clear
5:55 AM 54.1 °F 53.1 °F 96% 29.83 in 10.0 mi Calm Calm - N/A   Clear
6:15 AM 54.0 °F 52.7 °F 95% 29.83 in 10.0 mi Calm Calm - N/A   Clear
6:35 AM 54.5 °F 52.2 °F 92% 29.84 in 10.0 mi ENE 3.5 mph - N/A   Clear
6:55 AM 54.7 °F 51.8 °F 90% 29.84 in 10.0 mi NE 4.6 mph - N/A   Clear
7:15 AM 54.1 °F 51.4 °F 91% 29.84 in 10.0 mi ENE 4.6 mph - N/A   Clear
7:35 AM 54.3 °F 51.3 °F 89% 29.84 in 10.0 mi NNE 3.5 mph - 0.01 in   Clear
7:55 AM 54.1 °F 51.8 °F 92% 29.84 in 10.0 mi Calm Calm - 0.01 in   Clear
8:15 AM 56.5 °F 51.6 °F 84% 29.85 in 10.0 mi NE 4.6 mph - N/A   Clear
8:35 AM 57.9 °F 50.0 °F 75% 29.85 in 10.0 mi NE 3.5 mph - N/A   Clear
8:55 AM 59.4 °F 49.1 °F 69% 29.85 in 10.0 mi NE 3.5 mph - N/A   Clear
9:15 AM 61.0 °F 49.5 °F 66% 29.85 in 10.0 mi NE 3.5 mph - N/A   Clear
9:35 AM 62.2 °F 48.9 °F 62% 29.85 in 10.0 mi Calm Calm - N/A   Clear
9:55 AM 64.4 °F 48.6 °F 56% 29.85 in 10.0 mi Calm Calm - N/A   Clear
10:15 AM 66.0 °F 50.0 °F 56% 29.85 in 10.0 mi North 5.8 mph - N/A   Clear
10:35 AM 66.9 °F 47.8 °F 50% 29.85 in 10.0 mi North 4.6 mph - N/A   Clear
10:55 AM 67.1 °F 47.3 °F 49% 29.84 in 10.0 mi North 3.5 mph - N/A   Clear
11:15 AM 67.6 °F 47.8 °F 49% 29.84 in 10.0 mi North 5.8 mph - N/A   Clear
11:35 AM 69.3 °F 45.7 °F 43% 29.83 in 10.0 mi NNE 10.4 mph - N/A   Clear
11:55 AM 70.0 °F 45.5 °F 41% 29.84 in 10.0 mi NNE 6.9 mph - N/A   Clear
12:15 PM 70.2 °F 45.0 °F 40% 29.84 in 10.0 mi North 8.1 mph - N/A   Clear
12:35 PM 71.4 °F 44.2 °F 38% 29.84 in 10.0 mi NE 8.1 mph - N/A   Clear
1:15 PM 71.1 °F 44.2 °F 38% 29.82 in 10.0 mi NNE 9.2 mph - N/A   Clear
1:35 PM 70.9 °F 44.1 °F 38% 29.82 in 10.0 mi NE 10.4 mph - N/A   Clear
1:55 PM 70.9 °F 43.9 °F 38% 29.81 in 10.0 mi NNE 11.5 mph - N/A   Clear
2:15 PM 71.1 °F 43.3 °F 37% 29.80 in 10.0 mi NNE 8.1 mph 16.1 mph N/A   Clear
2:35 PM 70.9 °F 43.3 °F 37% 29.80 in 10.0 mi NNE 11.5 mph - N/A   Clear
2:55 PM 71.6 °F 43.9 °F 37% 29.80 in 10.0 mi NE 11.5 mph - N/A   Clear
3:15 PM 72.5 °F 44.1 °F 36% 29.79 in 10.0 mi North 10.4 mph 18.4 mph N/A   Clear
3:35 PM 73.2 °F 43.3 °F 34% 29.79 in 10.0 mi NNE 12.7 mph 17.3 mph N/A   Clear
3:55 PM 72.7 °F 42.4 °F 34% 29.79 in 10.0 mi NNE 10.4 mph - N/A   Clear
4:15 PM 70.9 °F 42.4 °F 36% 29.79 in 10.0 mi NNE 11.5 mph 16.1 mph N/A   Clear
4:35 PM 70.2 °F 42.8 °F 37% 29.79 in 10.0 mi NNE 13.8 mph 17.3 mph N/A   Clear
4:55 PM 70.7 °F 43.3 °F 37% 29.79 in 10.0 mi NNE 9.2 mph 17.3 mph N/A   Clear
5:15 PM 70.7 °F 44.4 °F 39% 29.79 in 10.0 mi North 9.2 mph - N/A   Clear
5:35 PM 70.5 °F 44.6 °F 39% 29.80 in 10.0 mi NNE 6.9 mph - N/A   Clear
5:55 PM 69.8 °F 43.0 °F 38% 29.80 in 10.0 mi North 11.5 mph - N/A   Clear
6:15 PM 68.4 °F 43.3 °F 40% 29.81 in 10.0 mi North 6.9 mph - N/A   Clear
6:35 PM 66.6 °F 45.1 °F 46% 29.80 in 10.0 mi NNW 3.5 mph - N/A   Clear
6:55 PM 65.3 °F 45.1 °F 48% 29.81 in 10.0 mi NNE 3.5 mph - N/A   Clear
7:15 PM 63.9 °F 45.3 °F 51% 29.80 in 10.0 mi ENE 5.8 mph - N/A   Clear
7:55 PM 61.3 °F 45.7 °F 56% 29.82 in 10.0 mi Calm Calm - N/A   Clear
8:15 PM 59.4 °F 46.6 °F 63% 29.83 in 10.0 mi Calm Calm - N/A   Clear
8:35 PM 58.6 °F 46.9 °F 65% 29.83 in 10.0 mi Calm Calm - N/A   Clear
8:55 PM 57.7 °F 46.8 °F 67% 29.83 in 10.0 mi Calm Calm - N/A   Clear
9:15 PM 57.9 °F 46.4 °F 65% 29.83 in 10.0 mi Calm Calm - N/A   Clear
9:35 PM 57.7 °F 46.0 °F 65% 29.84 in 10.0 mi Calm Calm - N/A   Clear
9:55 PM 56.1 °F 46.2 °F 69% 29.84 in 10.0 mi Calm Calm - N/A   Clear
10:15 PM 54.1 °F 46.9 °F 77% 29.84 in 10.0 mi Calm Calm - N/A   Clear
10:35 PM 53.6 °F 47.3 °F 79% 29.85 in 10.0 mi Calm Calm - N/A   Clear
11:15 PM 53.1 °F 47.1 °F 80% 29.85 in 10.0 mi Calm Calm - N/A   Clear
11:35 PM 52.2 °F 47.1 °F 83% 29.85 in 10.0 mi Calm Calm - N/A   Clear
11:55 PM 51.4 °F 48.0 °F 88% 29.85 in 10.0 mi Calm Calm - N/A   Clear